[[{"header":{"parameterUnit":"m.s-1","parameterCategory":1,"la1":30.2991,"la2":30.254,"lo1":-89.0895,"lo2":-89.0444,"dy":0.0017,"dx":0.0017,"nx":28,"ny":28,"refTime":"2025-07-19T03:00:00:Z","depth":0,"parameterNumber":2,"parameterNumberName":"U-component_of_WINDS"},"data":[0,0,0,0,0,0,0,0,0,0,0,0,0,0,0,0,0,0,0,0,0,0,0,0,0,0,0,0,0,0,0,0,0,0,0,0,0,0,0,0,0,0,0,0,0,0,0,0,0,0,0,0,0,0,0,0,0,0,1.8449,1.8451,0,1.8613,1.8615,1.8617,1.868,1.868,1.8679,1.8679,1.8845,1.885,1.8855,0,0,0,0,0,0,0,0,0,0,0,0,0,1.8188,1.8193,1.8449,1.8451,1.8453,1.8613,1.8615,1.8617,1.868,1.868,1.8679,1.8678,1.8843,1.8849,1.8855,0,0,0,0,0,0,0,0,0,0,0,0,0,1.8322,1.8194,1.8449,1.8504,1.851,1.8612,1.8615,1.8618,1.868,1.868,1.8679,1.8678,1.8842,1.8849,1.8856,1.8915,0,0,1.8878,1.8881,0,0,0,0,0,0,0,0,1.8314,1.8331,1.8494,1.85,1.8508,1.8626,1.8584,1.8717,1.868,1.8616,1.8679,1.8678,1.8772,1.8785,1.8818,1.8922,1.893,1.8879,1.8883,1.8886,1.8888,0,0,0,0,0,0,0,1.8305,1.8324,1.8514,1.8496,1.8505,1.852,1.8538,1.861,1.8696,1.8621,1.8626,1.8645,1.8776,1.881,1.8822,1.8932,1.8879,1.8885,1.889,1.8892,1.9093,1.9094,0,0,0,0,0,0,1.8286,1.8316,1.8509,1.8519,1.8407,1.8525,1.8545,1.8588,1.8695,1.8711,1.8645,1.8647,1.8798,1.8813,1.8828,1.8904,1.8886,1.8893,1.8897,1.9092,1.9093,1.9094,0,0,0,0,0,0,1.8281,1.8303,1.8502,1.8419,1.8446,1.853,1.8578,1.8592,1.8626,1.8714,1.8729,1.8665,1.8798,1.8818,1.8893,1.891,1.8896,1.8903,1.9091,1.9092,1.9093,1.9055,0,0,0,0,0,0,1.8273,1.8301,1.8324,1.8419,1.845,1.8564,1.8579,1.8596,1.8639,1.8643,1.8736,1.875,1.8799,1.8881,1.89,1.892,1.8909,1.9089,1.9091,1.9093,1.9055,1.9055,1.9055,0,0,0,0,0,1.8263,1.8307,1.8325,1.8348,1.8481,1.8565,1.8583,1.8639,1.864,1.8664,1.872,1.8747,1.8905,1.8889,1.891,1.8932,1.9089,1.9091,1.9093,1.9055,1.9055,1.9055,0,0,0,0,0,0,1.8211,1.832,1.8342,1.8417,1.8482,1.8576,1.8608,1.8637,1.8701,1.8702,1.8769,1.8789,1.8858,1.8903,1.8882,1.8995,1.8999,1.9005,1.8963,1.8964,1.8963,1.8951,1.8915,0,0,0,0,0,1.8208,1.8268,1.836,1.8418,1.8449,1.8523,1.8561,1.8599,1.8668,1.8695,1.8757,1.8822,1.8887,1.8928,1.8992,1.9062,1.9083,1.9088,1.9088,1.9087,1.9092,1.9132,1.9135,1.9101,1.9101,1.9101,0,0,1.8203,1.827,1.8304,1.8409,1.8463,1.8523,1.8545,1.8608,1.8652,1.8705,1.8779,1.8826,1.8904,1.8976,1.9011,1.9016,1.9106,1.909,1.9089,1.9094,1.9134,1.9138,1.914,1.9102,1.9102,1.9102,0,0,1.8225,1.8282,1.8336,1.839,1.8472,1.8521,1.8533,1.8624,1.8657,1.8733,1.8773,1.8827,1.8937,1.899,1.9031,1.9072,1.91,1.9091,1.9091,1.9129,1.9131,1.9134,1.9148,1.9152,1.9096,1.9096,1.9096,0,1.8208,1.83,1.836,1.842,1.8465,1.8515,1.857,1.8619,1.8718,1.8747,1.8751,1.8889,1.8945,1.903,1.904,1.9072,1.9088,1.9081,1.9126,1.913,1.9133,1.9147,1.9152,1.9094,1.9094,1.9095,1.9095,0,1.8275,1.8338,1.8372,1.8466,1.8515,1.8572,1.8639,1.8681,1.8714,1.8762,1.8838,1.8907,1.8986,1.9009,1.9042,1.9099,1.9099,1.9114,1.9119,1.9134,1.9148,1.9154,1.9092,1.9093,1.9093,1.9093,0,0,1.8268,1.8395,1.8406,1.8449,1.8543,1.8593,1.8652,1.8729,1.8763,1.8829,1.888,1.8972,1.8986,1.9033,1.9072,1.9105,1.9133,1.9116,1.9119,1.9116,1.9199,1.9187,1.9192,1.9151,1.9153,1.9154,1.9192,0,1.8301,1.841,1.8465,1.855,1.8609,1.8657,1.8709,1.8771,1.8818,1.8874,1.8925,1.8989,1.9003,1.9031,1.9067,1.9122,1.915,1.912,1.9199,1.9201,1.9177,1.92,1.9188,1.9221,1.9198,1.9199,1.92,0,1.8355,1.8421,1.8511,1.8598,1.8625,1.867,1.8745,1.8799,1.8871,1.8902,1.8954,1.8993,1.9056,1.9057,1.9144,1.9122,1.9158,1.919,1.9192,1.9202,1.9201,1.9209,1.9233,1.9238,1.921,1.9209,1.9208,0,1.834,1.8451,1.852,1.8555,1.8659,1.8689,1.8733,1.8805,1.8848,1.8913,1.8941,1.9013,1.9052,1.9106,1.9163,1.9158,1.9245,1.925,1.9272,1.927,1.9288,1.9286,1.9317,1.9311,1.9311,1.9311,1.9311,0,1.8371,1.8424,1.8515,1.8556,1.8617,1.868,1.8738,1.8786,1.8849,1.8901,1.8947,1.8994,1.9066,1.9123,1.9167,1.9232,1.925,1.9276,1.9288,1.9272,1.9269,1.9296,1.9295,1.9312,1.9312,1.9311,1.9311,0,1.8364,1.8427,1.8505,1.8596,1.8621,1.8661,1.8739,1.8781,1.883,1.8895,1.8914,1.899,1.9058,1.912,1.9211,1.9241,1.9307,1.9321,1.9283,1.9289,1.9307,1.9304,1.9356,1.9366,1.9353,1.9353,1.9353,0,1.838,1.8422,1.8518,1.8556,1.86,1.8661,1.8705,1.8768,1.8812,1.8897,1.8928,1.9,1.9061,1.9168,1.9231,1.9301,1.9317,1.933,1.9327,1.931,1.9316,1.9313,1.9317,1.9329,1.9329,1.9329,1.9329,0,1.8401,1.843,1.8492,1.8565,1.8616,1.8676,1.8738,1.8766,1.8841,1.8887,1.8958,1.9005,1.9098,1.9169,1.9245,1.929,1.9322,1.9329,1.9338,1.9322,1.9298,1.9311,1.9281,1.9328,1.9328,1.9328,1.9328,1.9328,1.8406,1.8445,1.8519,1.8586,1.864,1.8696,1.874,1.8794,1.8855,1.8936,1.8969,1.904,1.9111,1.9217,1.9262,1.9318,1.9324,1.9337,1.934,1.9342,1.9339,1.9289,1.9332,1.9332,1.9333,1.9333,1.9333,0,1.8428,1.8478,1.854,1.8625,1.8678,1.8703,1.8773,1.8815,1.8878,1.8941,1.9,1.9081,1.915,1.9218,1.929,1.9322,1.9338,1.9339,1.9337,1.9347,1.9329,1.9315,1.9324,1.9324,1.9324,1.9324,1.9324,1.9324,1.8446,1.8515,1.8552,1.8647,1.8697,1.8768,1.8805,1.8857,1.8908,1.8996,1.9054,1.9098,1.9163,1.924,1.9304,1.9323,1.9347,1.9343,1.9365,1.9348,1.9348,1.9348,1.9334,1.9348,1.9348,1.9378,1.9378,1.9378]},{"header":{"parameterUnit":"m.s-1","parameterCategory":1,"la1":30.2991,"la2":30.254,"lo1":-89.0895,"lo2":-89.0444,"dy":0.0017,"dx":0.0017,"nx":28,"ny":28,"refTime":"2025-07-19T03:00:00:Z","depth":0,"parameterNumber":3,"parameterNumberName":"V-component_of_WINDS"},"data":[0,0,0,0,0,0,0,0,0,0,0,0,0,0,0,0,0,0,0,0,0,0,0,0,0,0,0,0,0,0,0,0,0,0,0,0,0,0,0,0,0,0,0,0,0,0,0,0,0,0,0,0,0,0,0,0,0,0,5.0137,5.0136,0,5.0095,5.0095,5.0094,5.0016,5.0014,5.0013,5.0011,4.9971,4.9971,4.9971,0,0,0,0,0,0,0,0,0,0,0,0,0,5.015,5.015,5.0137,5.0136,5.0136,5.0095,5.0095,5.0094,5.0016,5.0014,5.0012,5.0011,4.997,4.9971,4.9971,0,0,0,0,0,0,0,0,0,0,0,0,0,5.013,5.015,5.0137,5.0092,5.0087,5.0095,5.0095,5.0094,5.0017,5.0014,5.0012,5.001,4.997,4.9971,4.9971,5.002,0,0,4.9973,4.9973,0,0,0,0,0,0,0,0,5.0131,5.0129,5.0099,5.0095,5.009,5.0058,5.0084,5.0069,5.0017,5.0044,5.0011,5.0009,5.0002,4.9999,4.9997,5.0018,5.0017,4.9973,4.9973,4.9973,4.9974,0,0,0,0,0,0,0,5.0133,5.0131,5.012,5.0099,5.0093,5.0074,5.0069,5.0081,5.0036,5.0041,5.0035,5.0031,4.9999,4.9997,4.9995,5.0016,4.9973,4.9973,4.9974,4.9974,5.0076,5.0078,0,0,0,0,0,0,5.014,5.0132,5.0122,5.0119,5.0105,5.0076,5.007,5.0071,5.0036,5.0028,5.0033,5.0028,4.9997,4.9995,4.9994,5.0048,4.9973,4.9974,4.9974,5.0074,5.0077,5.0079,0,0,0,0,0,0,5.0141,5.014,5.0123,5.0124,5.0121,5.0078,5.008,5.0071,5.0069,5.003,5.0022,5.0039,4.9995,4.9993,5.0014,5.0046,4.9974,4.9975,5.0071,5.0075,5.0078,5.0159,0,0,0,0,0,0,5.0142,5.0141,5.0158,5.0125,5.0121,5.0144,5.0082,5.0072,5.007,5.0062,5.0033,5.0026,4.9993,5.0014,5.0015,5.0045,4.9975,5.0068,5.0072,5.0077,5.0153,5.0165,5.0175,0,0,0,0,0,5.0142,5.0183,5.016,5.0159,5.0142,5.0146,5.0144,5.0104,5.0073,5.009,5.0065,5.0027,5.0043,5.0017,5.0017,5.0048,5.0066,5.0071,5.0076,5.0148,5.0163,5.0175,0,0,0,0,0,0,5.0222,5.0178,5.0151,5.0183,5.0169,5.0133,5.0154,5.0121,5.0116,5.0109,5.0061,5.0055,5.0083,5.0068,5.004,5.0094,5.0048,5.0054,5.0103,5.0116,5.0127,5.0129,4.9975,0,0,0,0,0,5.0243,5.0249,5.0211,5.0242,5.0237,5.0197,5.0197,5.0168,5.0152,5.0146,5.0122,5.0109,5.011,5.0112,5.0112,5.0151,5.0144,5.0173,5.0184,5.0193,5.0198,5.0218,5.023,5.0097,5.0097,5.0097,0,0,5.0287,5.0264,5.0271,5.0258,5.0244,5.0252,5.0192,5.0204,5.021,5.0148,5.0166,5.0149,5.013,5.0161,5.0173,5.0149,5.0234,5.02,5.0207,5.0208,5.0225,5.0238,5.0249,5.0101,5.01,5.0099,0,0,5.037,5.0354,5.0378,5.0365,5.0344,5.0317,5.0323,5.0293,5.0279,5.0296,5.025,5.0257,5.0261,5.0249,5.0244,5.0325,5.0289,5.0326,5.0382,5.0402,5.0413,5.0422,5.0451,5.0461,5.0332,5.0332,5.0332,0,5.0427,5.0437,5.0395,5.0409,5.0405,5.0349,5.0373,5.0363,5.0344,5.0342,5.0316,5.0319,5.0303,5.033,5.035,5.0348,5.0353,5.0329,5.0415,5.0423,5.0431,5.0458,5.0469,5.0337,5.0336,5.0336,5.0335,0,5.0509,5.0517,5.0539,5.0521,5.0519,5.0539,5.0499,5.0503,5.0475,5.0451,5.047,5.0449,5.0443,5.0447,5.042,5.0471,5.0457,5.0423,5.0376,5.0449,5.0474,5.0483,5.0343,5.0341,5.034,5.0339,0,0,5.064,5.0599,5.0608,5.0599,5.0572,5.0578,5.0595,5.0589,5.0593,5.0582,5.0595,5.06,5.0569,5.0564,5.0534,5.0552,5.0617,5.0516,5.0515,5.0535,5.0672,5.0697,5.071,5.0594,5.0596,5.0597,5.0674,0,5.0718,5.0744,5.0707,5.0742,5.0749,5.0696,5.0711,5.0697,5.0676,5.0679,5.0656,5.066,5.0619,5.0615,5.063,5.0606,5.0644,5.06,5.0606,5.0607,5.0612,5.0722,5.0749,5.0822,5.0683,5.0685,5.0686,0,5.0812,5.0804,5.084,5.0812,5.0813,5.0827,5.0819,5.0823,5.0806,5.0789,5.0783,5.0748,5.0764,5.0719,5.0739,5.0711,5.0711,5.07,5.0702,5.07,5.065,5.0724,5.0845,5.0856,5.07,5.0699,5.0698,0,5.0904,5.0903,5.0924,5.0919,5.0886,5.0897,5.0884,5.0865,5.0864,5.0857,5.0856,5.0851,5.0848,5.0846,5.0811,5.0781,5.0836,5.0788,5.0823,5.0824,5.0836,5.0836,5.0959,5.0838,5.0838,5.0837,5.0837,0,5.0994,5.1018,5.0965,5.0979,5.1004,5.0961,5.0988,5.0969,5.0953,5.0962,5.0917,5.0926,5.088,5.0885,5.0858,5.0879,5.0878,5.0865,5.0858,5.0869,5.0871,5.0868,5.0862,5.084,5.084,5.0839,5.0839,0,5.1101,5.1067,5.1086,5.1054,5.1046,5.1067,5.1039,5.105,5.1026,5.1038,5.1039,5.1001,5.1005,5.097,5.0967,5.0948,5.0982,5.0966,5.0988,5.0983,5.1019,5.1016,5.1144,5.1159,5.103,5.1031,5.1032,0,5.116,5.1177,5.1147,5.1149,5.1138,5.1143,5.1142,5.1101,5.1101,5.1084,5.1097,5.1097,5.1094,5.1102,5.1075,5.1072,5.1055,5.11,5.1055,5.1066,5.1056,5.1055,5.1056,5.111,5.1112,5.1113,5.1114,0,5.1269,5.1252,5.1251,5.1245,5.1245,5.1238,5.1229,5.1234,5.1189,5.1192,5.1194,5.1192,5.1189,5.1189,5.1182,5.1169,5.1134,5.1129,5.1136,5.1148,5.116,5.1154,5.1014,5.1126,5.1125,5.1124,5.1123,5.1123,5.1354,5.1367,5.1347,5.1348,5.1337,5.1329,5.1338,5.1315,5.1317,5.131,5.1286,5.1293,5.1276,5.1262,5.1253,5.1258,5.1236,5.1248,5.125,5.1254,5.126,5.116,5.1257,5.1256,5.1256,5.1255,5.1255,0,5.146,5.1445,5.1447,5.1435,5.1436,5.1403,5.1391,5.1394,5.1401,5.1388,5.1386,5.139,5.139,5.1363,5.136,5.137,5.1354,5.137,5.1369,5.1367,5.128,5.1274,5.1383,5.1383,5.1383,5.1383,5.1383,5.1383,5.1516,5.1535,5.1516,5.153,5.1515,5.1521,5.1517,5.151,5.1499,5.1505,5.1505,5.1487,5.1469,5.1464,5.1463,5.1455,5.1456,5.1478,5.1465,5.1385,5.1373,5.1361,5.1354,5.1479,5.1479,5.1551,5.1551,5.1552]}]]